[Iaude] MPEC X246: 2023 XZ10 [a=4.78,e=0.77,i=25.6,H=21.5]

mpec at marsden.cfa.harvard.edu mpec at marsden.cfa.harvard.edu
Tue Dec 12 08:01:42 EST 2023


M.P.E.C. 2023-X246                            Issued 2023 December 12, 13:00 UT

     The Minor Planet Electronic Circulars contain information on unusual
         minor planets, routine data on comets and natural satellites,
         and occasional editorial announcements.  They are published
    on behalf of Division F of the International Astronomical Union by the
          Minor Planet Center, Smithsonian Astrophysical Observatory,
                          Cambridge, MA 02138, U.S.A.
			  
             Prepared using the Tamkin Foundation Computer Network

                              MPC at CFA.HARVARD.EDU
            URL https://www.minorplanetcenter.net/    ISSN 1523-6714

                                   2023 XZ10                                    


Observations:
     K23X10Z*1C2023 12 10.30894508 04 41.992+41 35 39.41         19.40GVEX246703
     K23X10Z 1C2023 12 10.31105808 04 41.812+41 35 16.19         19.35GVEX246703
     K23X10Z 1C2023 12 10.31317208 04 41.462+41 34 53.72         19.42GVEX246703
     K23X10Z 1C2023 12 10.31529108 04 41.347+41 34 31.15         20.06GVEX246703
     K23X10Z  C2023 12 10.34395308 04 37.696+41 29 21.19         19.0 GVEX246H01
     K23X10Z  C2023 12 10.34812008 04 37.205+41 28 36.14         18.9 GVEX246H01
     K23X10Z  C2023 12 10.36579808 04 35.085+41 25 24.67         18.9 GVEX246H01
     K23X10Z  C2023 12 10.36925908 04 34.668+41 24 47.23         18.9 GVEX246H01
     K23X10Z mC2023 12 10.41213308 04 29.705+41 17 02.36         19.11GVEX246I52
     K23X10Z mC2023 12 10.41430908 04 29.446+41 16 38.32         19.21GVEX246I52
     K23X10Z mC2023 12 10.41457108 04 29.453+41 16 35.76         19.33GVEX246I52
     K23X10Z mC2023 12 10.41673908 04 29.154+41 16 12.07         19.04GVEX246I52
     K23X10Z KC2023 12 10.46708 08 04 22.34 +41 06 52.5          18.7 GVEX246H36
     K23X10Z KC2023 12 10.47633 08 04 21.20 +41 05 11.5          18.6 GVEX246H36
     K23X10Z KC2023 12 10.92916 08 03 41.58 +39 42 22.3                VEX246104
     K23X10Z KC2023 12 10.93486 08 03 40.91 +39 41 20.1          18.4 GVEX246104
     K23X10Z 6C2023 12 11.12056808 03 20.313+39 07 32.15         19.4 GVEX246Z84
     K23X10Z 6C2023 12 11.12251808 03 20.080+39 07 10.66         19.3 GVEX246Z84
     K23X10Z 6C2023 12 11.12445608 03 19.844+39 06 49.17         19.5 GVEX246Z84
     K23X10Z KC2023 12 11.30504908 03 03.46 +38 33 34.0          19.6 GVEX246H21
     K23X10Z KC2023 12 11.30784308 03 03.12 +38 33 03.2          19.5 GVEX246H21
     K23X10Z KC2023 12 11.31063808 03 02.79 +38 32 32.5          19.5 GVEX246H21
     K23X10Z KC2023 12 11.31343408 03 02.47 +38 32 01.7          19.4 GVEX246H21
     K23X10Z KC2023 12 11.31623008 03 02.14 +38 31 31.0          19.7 GVEX246H21
     K23X10Z KC2023 12 11.31902608 03 01.81 +38 31 00.3          19.8 GVEX246H21
     K23X10Z KB2023 12 11.32505 08 03 01.58 +38 29 53.5          19.2 GXEX246H36
     K23X10Z KB2023 12 11.33191 08 03 00.75 +38 28 38.2          18.5 GXEX246H36
     K23X10Z KB2023 12 11.33877 08 02 59.92 +38 27 22.6          18.7 GXEX246H36
     K23X10Z KB2023 12 11.34664 08 02 59.02 +38 25 55.4          18.9 GVEX246734
     K23X10Z KB2023 12 11.36015 08 02 57.43 +38 23 27.8          19.0 GVEX246734
     K23X10Z KB2023 12 11.36680 08 02 56.67 +38 22 14.4          19.4 GVEX246734
     K23X10Z KC2023 12 12.11105 08 01 43.88 +36 04 35.3                VEX246204
     K23X10Z KC2023 12 12.11423 08 01 43.52 +36 03 59.9          19.1 GVEX246204
     K23X10Z KC2023 12 12.11741 08 01 43.16 +36 03 24.5                VEX246204
     K23X10Z KB2023 12 12.30872 08 01 26.66 +35 28 00.6          18.7 GXEX246H36
     K23X10Z KB2023 12 12.31384 08 01 26.07 +35 27 02.9          18.5 GXEX246H36
     K23X10Z KB2023 12 12.31866 08 01 25.51 +35 26 11.3          18.4 GXEX246H36
     K23X10Z KB2023 12 12.37184 08 01 19.30 +35 16 19.5          19.2 GVEX246734
     K23X10Z KB2023 12 12.37730 08 01 18.68 +35 15 18.8          18.6 GVEX246734
     K23X10Z KB2023 12 12.38249 08 01 18.06 +35 14 21.1          18.9 GVEX246734
     K23X10Z KB2023 12 12.38752 08 01 17.48 +35 13 24.9          19.1 GVEX246734

Observer details:
104 San Marcello Pistoiese.  Observers P. Bacci, M. Maestripieri.  Measurer P.
    Bacci.  0.60-m f/4.0 reflector + CCD.
204 Schiaparelli Observatory.  Observers L. Buzzi, G. Galli.  0.84-m f/3.5
    reflector + CCD.
703 Catalina Sky Survey.  Observer D. C. Fuls.  Measurers E. C. Beshore, D.
    Fay, J. B. Fazekas, D. C. Fuls, A. R. Gibbs, A. D. Grauer, H. Groeller, J.
    K. Hogan, R. A. Kowalski, S. M. Larson, G. J. Leonard, D. Rankin, R. L.
    Seaman, F. C. Shelly, K. W. Wierzchos.  0.68-m Schmidt + 10K CCD.
734 Farpoint Observatory, Eskridge.  Observers D. Cromer, G. Hug, D. Goodin,
    R. Valentine.  Measurer D. Cromer.  0.69-m f/3.54 reflector + CMO.
H01 Magdalena Ridge Observatory, Socorro.  Observers W. H. Ryan, E. V. Ryan.
    Measurer W. H. Ryan.  2.4-m f/8.9 Ritchey-Chretien + CCD.
H21 Astronomical Research Observatory, Westfield.  Observer R. Holmes.
    Measurers T. Linder, R. Holmes, L. Horn.  0.76-m f/3.0 astrograph + CCD.
H36 Sandlot Observatory, Scranton.  Observer G. Hug.  .25 meter f/5.2 + CCD,
    0.56-m f/4.8 reflector + CMO, 0.25-m 7.4 reflector + CMO.
I52 Steward Observatory, Mt. Lemmon Station.  Observer G. J. Leonard.
    Measurers E. C. Beshore, D. Fay, J. B. Fazekas, D. C. Fuls, A. R. Gibbs,
    A. D. Grauer, H. Groeller, J. K. Hogan, R. A. Kowalski, S. M. Larson, G.
    J. Leonard, D. Rankin, R. L. Seaman, F. C. Shelly, K. W. Wierzchos.  1.0-m
    prime focus + CCD.
Z84 Calar Alto-Schmidt.  Observers M. Micheli, R. Kresken.  Measurers R.
    Kresken, M. Micheli, F. Ocana, L. Conversi.  0.8-m f/3 Schmidt + CCD.

Orbital elements:
2023 XZ10                                                Earth MOID = 0.1470 AU
Epoch 2023 Sept. 13.0 TT = JDT 2460200.5                Veres                   
M 352.71400              (2000.0)            P               Q                  
n   0.09418319     Peri.  160.47879     +0.31304912     -0.84572691             
a   4.7843225      Node   269.28666     +0.80378968     +0.47829438             
e   0.7677953      Incl.   25.60567     +0.50588773     -0.23660194             
P  10.5            H   21.53          G   0.15           U   9                  
Residuals in seconds of arc
231210 703  0.5-  0.4+    231210 104  0.5+  0.3+    231211 734  0.0   0.6-
231210 703  0.2+  0.1-    231210 104  0.1-  0.1+    231211 734  0.0   0.7+
231210 703  1.0-  0.2+    231211 Z84  0.0   0.0     231211 734  0.3+  0.6+
231210 703  0.5+  0.4+    231211 Z84  0.0   0.0     231212 204  0.1-  0.0
231210 H01  0.0   0.1+    231211 Z84  0.1-  0.2-    231212 204  0.1-  0.1+
231210 H01  0.1+  0.1+    231211 H21  0.2+  0.1-    231212 204  0.0   0.1+
231210 H01  0.0   0.1+    231211 H21  0.0   0.1-    231212 H36  0.4+  0.2+
231210 H01  0.0   0.1+    231211 H21  0.0   0.1-    231212 H36  0.4+  0.8-
231210 I52  0.2-  0.1+    231211 H21  0.0   0.1-    231212 H36  0.4+  1.0+
231210 I52  0.1-  0.3-    231211 H21  0.0   0.1-    231212 734  0.2-  0.1-
231210 I52  0.3+  0.0     231211 H21  0.0   0.0     231212 734  0.0   0.0
231210 I52  0.1-  0.1-    231211 H36  0.4+  0.2-    231212 734  0.2-  0.1+
231210 H36  0.6+  1.6-    231211 H36  0.1+  0.1-    231212 734  0.1-  0.1-
231210 H36  0.1-  0.8-    231211 H36  0.1-  0.2-

Ephemeris:
2023 XZ10                a,e,i = 4.78, 0.77, 26                  q = 1.1109
Date    TT    R. A. (2000) Decl.     Delta      r    Elong.  Phase     V
2023 11 12    00 51 40.2 +89 34 24   0.3351  1.1382   107.8    55.9    21.5
...
2023 11 27    08 26 43.9 +73 16 02   0.2304  1.1115   117.3    52.1    20.5
...
2023 12 05    08 13 27.8 +56 30 59   0.1893  1.1139   128.8    43.6    19.8
...
2023 12 11    08 03 32.1 +39 29 46   0.1742  1.1233   139.7    34.5    19.4
2023 12 12    08 01 55.1 +36 25 27   0.1734  1.1255   141.4    33.1    19.4
2023 12 13    08 00 19.0 +33 19 53   0.1732  1.1279   143.1    31.6    19.3
...
2023 12 19    07 51 06.3 +15 28 43   0.1837  1.1457   149.2    26.1    19.3
...
2023 12 27    07 40 10.5 -02 41 21   0.2238  1.1783   147.5    26.7    19.8
...
2024 01 11    07 24 41.8 -19 05 28   0.3436  1.2629   138.9    30.8    21.0

M. P. C. Staff               (C) Copyright 2023 MPC           M.P.E.C. 2023-X246





More information about the Iaude mailing list